Time,TemperatureF,DewpointF,PressureIn,WindDirection,WindDirectionDegrees,WindSpeedMPH,WindSpeedGustMPH,Humidity,HourlyPrecipIn,Conditions,Clouds,dailyrainin,SoftwareType,DateUTC
2013-01-20 00:00:00,27.1,18.3,30.42,NNW,344,0.0,0.0,69,0.00,,,0.00,Wunderground v.1.15,2013-01-20 07:00:00,
2013-01-20 00:05:00,27.3,18.5,30.42,NNW,344,0.0,0.0,69,0.00,,,0.00,Wunderground v.1.15,2013-01-20 07:05:00,
2013-01-20 00:15:00,26.2,17.4,30.42,NNW,344,0.0,0.0,69,0.00,,,0.00,Wunderground v.1.15,2013-01-20 07:15:00,
2013-01-20 00:20:00,26.4,17.9,30.42,NNW,344,0.0,0.0,70,0.00,,,0.00,Wunderground v.1.15,2013-01-20 07:20:00,
2013-01-20 00:25:00,26.6,18.1,30.42,NNW,344,0.0,0.0,70,0.00,,,0.00,Wunderground v.1.15,2013-01-20 07:25:00,
2013-01-20 00:35:00,26.7,17.9,30.42,NNW,344,0.0,1.0,69,0.00,,,0.00,Wunderground v.1.15,2013-01-20 07:35:00,
2013-01-20 00:40:00,26.8,18.0,30.42,NNW,344,0.0,0.0,69,0.00,,,0.00,Wunderground v.1.15,2013-01-20 07:40:00,
2013-01-20 00:45:00,26.9,17.7,30.42,NNW,344,0.0,1.0,68,0.00,,,0.00,Wunderground v.1.15,2013-01-20 07:45:00,
2013-01-20 00:55:00,26.9,17.7,30.42,NNW,344,0.0,1.0,68,0.00,,,0.00,Wunderground v.1.15,2013-01-20 07:55:00,
2013-01-20 01:00:00,26.5,17.0,30.42,NNW,344,0.0,0.0,67,0.00,,,0.00,Wunderground v.1.15,2013-01-20 08:00:00,
2013-01-20 01:05:00,26.3,17.2,30.42,NNW,344,0.0,1.0,68,0.00,,,0.00,Wunderground v.1.15,2013-01-20 08:05:00,
2013-01-20 01:15:00,26.2,16.7,30.42,NNW,344,0.0,0.0,67,0.00,,,0.00,Wunderground v.1.15,2013-01-20 08:15:00,
2013-01-20 01:20:00,26.1,17.0,30.42,NNW,344,0.0,0.0,68,0.00,,,0.00,Wunderground v.1.15,2013-01-20 08:20:00,
2013-01-20 01:25:00,26.1,17.0,30.42,NNW,344,0.0,2.0,68,0.00,,,0.00,Wunderground v.1.15,2013-01-20 08:25:00,
2013-01-20 01:30:00,26.1,17.0,30.42,NNW,344,1.0,1.0,68,0.00,,,0.00,Wunderground v.1.15,2013-01-20 08:30:00,
2013-01-20 01:35:00,25.7,16.3,30.42,NNW,344,0.0,1.0,67,0.00,,,0.00,Wunderground v.1.15,2013-01-20 08:35:00,
2013-01-20 01:45:00,25.1,16.0,30.42,NNW,344,0.0,0.0,68,0.00,,,0.00,Wunderground v.1.15,2013-01-20 08:45:00,
2013-01-20 01:55:00,24.5,15.4,30.42,NNW,344,0.0,0.0,68,0.00,,,0.00,Wunderground v.1.15,2013-01-20 08:55:00,
2013-01-20 02:00:00,24.3,15.6,30.42,NNW,344,0.0,0.0,69,0.00,,,0.00,Wunderground v.1.15,2013-01-20 09:00:00,
2013-01-20 02:05:00,24.0,15.3,30.43,NNW,344,0.0,0.0,69,0.00,,,0.00,Wunderground v.1.15,2013-01-20 09:05:00,
2013-01-20 02:15:00,24.1,16.1,30.42,NNW,344,0.0,1.0,71,0.00,,,0.00,Wunderground v.1.15,2013-01-20 09:15:00,
2013-01-20 02:20:00,24.2,16.1,30.42,NNW,344,0.0,0.0,71,0.00,,,0.00,Wunderground v.1.15,2013-01-20 09:20:00,
2013-01-20 02:25:00,24.3,16.2,30.42,NNW,344,0.0,0.0,71,0.00,,,0.00,Wunderground v.1.15,2013-01-20 09:25:00,
2013-01-20 02:30:00,24.0,15.3,30.42,NNW,344,0.0,0.0,69,0.00,,,0.00,Wunderground v.1.15,2013-01-20 09:30:00,
2013-01-20 02:35:00,23.7,15.3,30.42,NNW,344,0.0,0.0,70,0.00,,,0.00,Wunderground v.1.15,2013-01-20 09:35:00,
2013-01-20 02:45:00,23.7,15.7,30.42,NNW,344,0.0,0.0,71,0.00,,,0.00,Wunderground v.1.15,2013-01-20 09:45:00,
2013-01-20 02:55:00,23.9,15.9,30.42,NNW,344,0.0,2.0,71,0.00,,,0.00,Wunderground v.1.15,2013-01-20 09:55:00,
2013-01-20 03:00:00,23.9,17.4,30.42,NNW,344,0.0,0.0,76,0.00,,,0.00,Wunderground v.1.15,2013-01-20 10:00:00,
2013-01-20 03:05:00,23.7,15.3,30.41,NNW,344,0.0,1.0,70,0.00,,,0.00,Wunderground v.1.15,2013-01-20 10:05:00,
2013-01-20 03:15:00,23.3,15.3,30.41,NNW,344,0.0,0.0,71,0.00,,,0.00,Wunderground v.1.15,2013-01-20 10:15:00,
2013-01-20 03:25:00,22.9,14.9,30.41,NNW,344,0.0,0.0,71,0.00,,,0.00,Wunderground v.1.15,2013-01-20 10:25:00,
2013-01-20 03:30:00,22.8,14.8,30.41,NNW,344,0.0,0.0,71,0.00,,,0.00,Wunderground v.1.15,2013-01-20 10:30:00,
2013-01-20 03:35:00,22.4,14.4,30.41,NNW,344,0.0,0.0,71,0.00,,,0.00,Wunderground v.1.15,2013-01-20 10:35:00,
2013-01-20 03:45:00,22.1,14.4,30.42,NNW,344,0.0,0.0,72,0.00,,,0.00,Wunderground v.1.15,2013-01-20 10:45:00,
2013-01-20 03:50:00,21.8,14.2,30.41,NNW,344,0.0,0.0,72,0.00,,,0.00,Wunderground v.1.15,2013-01-20 10:50:00,
2013-01-20 04:00:00,22.1,14.8,30.41,NNW,344,0.0,1.0,73,0.00,,,0.00,Wunderground v.1.15,2013-01-20 11:00:00,
2013-01-20 04:05:00,22.5,15.1,30.41,North,11,1.0,2.0,73,0.00,,,0.00,Wunderground v.1.15,2013-01-20 11:05:00,
2013-01-20 04:15:00,23.0,15.3,30.40,North,11,1.0,1.0,72,0.00,,,0.00,Wunderground v.1.15,2013-01-20 11:15:00,
2013-01-20 04:20:00,23.0,15.3,30.41,North,11,0.0,1.0,72,0.00,,,0.00,Wunderground v.1.15,2013-01-20 11:20:00,
2013-01-20 04:25:00,22.7,15.0,30.41,North,11,0.0,1.0,72,0.00,,,0.00,Wunderground v.1.15,2013-01-20 11:25:00,
2013-01-20 04:35:00,22.1,14.8,30.40,North,11,0.0,0.0,73,0.00,,,0.00,Wunderground v.1.15,2013-01-20 11:35:00,
2013-01-20 04:40:00,22.0,14.7,30.41,North,11,0.0,1.0,73,0.00,,,0.00,Wunderground v.1.15,2013-01-20 11:40:00,
2013-01-20 04:50:00,21.9,14.3,30.41,North,11,0.0,0.0,72,0.00,,,0.00,Wunderground v.1.15,2013-01-20 11:50:00,
2013-01-20 04:55:00,21.6,14.0,30.41,North,11,0.0,0.0,72,0.00,,,0.00,Wunderground v.1.15,2013-01-20 11:55:00,
2013-01-20 05:00:00,21.2,13.9,30.41,North,11,0.0,2.0,73,0.00,,,0.00,Wunderground v.1.15,2013-01-20 12:00:00,
2013-01-20 05:05:00,21.3,14.3,30.41,North,11,0.0,2.0,74,0.00,,,0.00,Wunderground v.1.15,2013-01-20 12:05:00,
2013-01-20 05:15:00,21.2,14.2,30.41,North,11,0.0,0.0,74,0.00,,,0.00,Wunderground v.1.15,2013-01-20 12:15:00,
2013-01-20 05:20:00,21.2,14.2,30.41,North,11,0.0,0.0,74,0.00,,,0.00,Wunderground v.1.15,2013-01-20 12:20:00,
2013-01-20 05:30:00,20.9,13.9,30.41,North,11,0.0,0.0,74,0.00,,,0.00,Wunderground v.1.15,2013-01-20 12:30:00,
2013-01-20 05:35:00,20.8,13.8,30.41,North,11,0.0,0.0,74,0.00,,,0.00,Wunderground v.1.15,2013-01-20 12:35:00,
2013-01-20 05:45:00,20.6,13.9,30.40,North,11,0.0,2.0,75,0.00,,,0.00,Wunderground v.1.15,2013-01-20 12:45:00,
2013-01-20 05:50:00,20.5,13.8,30.40,North,11,0.0,0.0,75,0.00,,,0.00,Wunderground v.1.15,2013-01-20 12:50:00,
2013-01-20 05:55:00,20.4,13.7,30.40,North,11,1.0,2.0,75,0.00,,,0.00,Wunderground v.1.15,2013-01-20 12:55:00,
2013-01-20 06:00:00,20.5,14.1,30.40,North,11,0.0,0.0,76,0.00,,,0.00,Wunderground v.1.15,2013-01-20 13:00:00,
2013-01-20 06:05:00,20.6,14.2,30.41,North,11,0.0,3.0,76,0.00,,,0.00,Wunderground v.1.15,2013-01-20 13:05:00,
2013-01-20 06:15:00,21.4,15.0,30.40,North,11,1.0,1.0,76,0.00,,,0.00,Wunderground v.1.15,2013-01-20 13:15:00,
2013-01-20 06:20:00,21.3,14.9,30.40,North,11,0.0,0.0,76,0.00,,,0.00,Wunderground v.1.15,2013-01-20 13:20:00,
2013-01-20 06:25:00,21.5,15.1,30.41,North,11,0.0,0.0,76,0.00,,,0.00,Wunderground v.1.15,2013-01-20 13:25:00,
2013-01-20 06:35:00,20.3,13.6,30.41,North,11,0.0,0.0,75,0.00,,,0.00,Wunderground v.1.15,2013-01-20 13:35:00,
2013-01-20 06:40:00,19.6,13.6,30.41,North,11,0.0,0.0,77,0.00,,,0.00,Wunderground v.1.15,2013-01-20 13:40:00,
2013-01-20 06:50:00,19.2,13.2,30.41,North,11,0.0,0.0,77,0.00,,,0.00,Wunderground v.1.15,2013-01-20 13:50:00,
2013-01-20 06:55:00,18.7,12.4,30.41,North,11,0.0,0.0,76,0.00,,,0.00,Wunderground v.1.15,2013-01-20 13:55:00,
2013-01-20 07:00:00,18.0,12.0,30.41,North,11,0.0,0.0,77,0.00,,,0.00,Wunderground v.1.15,2013-01-20 14:00:00,
2013-01-20 07:05:00,18.0,12.0,30.41,North,11,0.0,0.0,77,0.00,,,0.00,Wunderground v.1.15,2013-01-20 14:05:00,
2013-01-20 07:15:00,18.5,13.6,30.40,North,11,0.0,0.0,81,0.00,,,0.00,Wunderground v.1.15,2013-01-20 14:15:00,
2013-01-20 07:20:00,19.4,14.2,30.41,North,11,0.0,0.0,80,0.00,,,0.00,Wunderground v.1.15,2013-01-20 14:20:00,
2013-01-20 07:30:00,18.6,13.2,30.40,North,11,0.0,0.0,79,0.00,,,0.00,Wunderground v.1.15,2013-01-20 14:30:00,
2013-01-20 07:35:00,18.8,13.7,30.40,North,11,0.0,0.0,80,0.00,,,0.00,Wunderground v.1.15,2013-01-20 14:35:00,
2013-01-20 07:40:00,18.9,13.7,30.41,North,11,0.0,1.0,80,0.00,,,0.00,Wunderground v.1.15,2013-01-20 14:40:00,
2013-01-20 07:45:00,19.3,14.4,30.41,North,11,0.0,1.0,81,0.00,,,0.00,Wunderground v.1.15,2013-01-20 14:45:00,
2013-01-20 07:50:00,19.7,14.5,30.41,North,11,0.0,0.0,80,0.00,,,0.00,Wunderground v.1.15,2013-01-20 14:50:00,
2013-01-20 08:00:00,20.1,14.9,30.40,North,11,0.0,0.0,80,0.00,,,0.00,Wunderground v.1.15,2013-01-20 15:00:00,
2013-01-20 08:05:00,20.6,15.7,30.41,North,11,0.0,0.0,81,0.00,,,0.00,Wunderground v.1.15,2013-01-20 15:05:00,
2013-01-20 08:15:00,22.7,17.2,30.41,North,11,0.0,1.0,79,0.00,,,0.00,Wunderground v.1.15,2013-01-20 15:15:00,
2013-01-20 08:20:00,23.8,17.6,30.40,North,11,0.0,1.0,77,0.00,,,0.00,Wunderground v.1.15,2013-01-20 15:20:00,
2013-01-20 08:25:00,24.9,18.1,30.41,North,11,0.0,1.0,75,0.00,,,0.00,Wunderground v.1.15,2013-01-20 15:25:00,
2013-01-20 08:35:00,26.2,18.1,30.41,NNE,20,2.0,7.0,71,0.00,,,0.00,Wunderground v.1.15,2013-01-20 15:35:00,
2013-01-20 08:40:00,26.6,18.1,30.41,North,10,1.0,3.0,70,0.00,,,0.00,Wunderground v.1.15,2013-01-20 15:40:00,
2013-01-20 08:45:00,27.1,18.3,30.41,NNE,18,1.0,3.0,69,0.00,,,0.00,Wunderground v.1.15,2013-01-20 15:45:00,
2013-01-20 08:50:00,27.8,18.6,30.41,NNE,18,1.0,1.0,68,0.00,,,0.00,Wunderground v.1.15,2013-01-20 15:50:00,
2013-01-20 09:00:00,28.9,18.6,30.41,NNE,19,1.0,3.0,65,0.00,,,0.00,Wunderground v.1.15,2013-01-20 16:00:00,
2013-01-20 09:05:00,29.4,18.7,30.41,North,9,2.0,3.0,64,0.00,,,0.00,Wunderground v.1.15,2013-01-20 16:05:00,
2013-01-20 09:15:00,30.5,18.3,30.41,NNE,23,1.0,4.0,60,0.00,,,0.00,Wunderground v.1.15,2013-01-20 16:15:00,
2013-01-20 09:20:00,30.8,18.1,30.41,NNE,13,1.0,1.0,59,0.00,,,0.00,Wunderground v.1.15,2013-01-20 16:20:00,
2013-01-20 09:25:00,31.5,18.0,30.41,NNE,15,1.0,1.0,57,0.00,,,0.00,Wunderground v.1.15,2013-01-20 16:25:00,
2013-01-20 09:30:00,32.4,17.6,30.41,NNE,15,0.0,0.0,54,0.00,,,0.00,Wunderground v.1.15,2013-01-20 16:30:00,
2013-01-20 09:40:00,32.3,16.6,30.41,NNE,17,2.0,2.0,52,0.00,,,0.00,Wunderground v.1.15,2013-01-20 16:40:00,
2013-01-20 09:45:00,32.6,16.9,30.41,North,5,2.0,2.0,52,0.00,,,0.00,Wunderground v.1.15,2013-01-20 16:45:00,
2013-01-20 09:55:00,33.7,16.5,30.41,NNE,20,1.0,3.0,49,0.00,,,0.00,Wunderground v.1.15,2013-01-20 16:55:00,
2013-01-20 10:00:00,34.1,15.9,30.41,NNE,19,2.0,2.0,47,0.00,,,0.00,Wunderground v.1.15,2013-01-20 17:00:00,
2013-01-20 10:05:00,34.3,16.1,30.41,North,5,2.0,2.0,47,0.00,,,0.00,Wunderground v.1.15,2013-01-20 17:05:00,
2013-01-20 10:15:00,35.8,17.0,30.40,North,9,1.0,3.0,46,0.00,,,0.00,Wunderground v.1.15,2013-01-20 17:15:00,
2013-01-20 10:20:00,36.5,17.7,30.40,North,5,1.0,1.0,46,0.00,,,0.00,Wunderground v.1.15,2013-01-20 17:20:00,
2013-01-20 10:25:00,37.2,17.3,30.40,North,11,1.0,1.0,44,0.00,,,0.00,Wunderground v.1.15,2013-01-20 17:25:00,
2013-01-20 10:30:00,37.9,17.4,30.39,NNE,13,1.0,1.0,43,0.00,,,0.00,Wunderground v.1.15,2013-01-20 17:30:00,
2013-01-20 10:35:00,38.1,16.4,30.39,NNE,13,1.0,2.0,41,0.00,,,0.00,Wunderground v.1.15,2013-01-20 17:35:00,
2013-01-20 10:45:00,39.0,17.3,30.39,North,350,1.0,1.0,41,0.00,,,0.00,Wunderground v.1.15,2013-01-20 17:45:00,
2013-01-20 10:55:00,40.3,17.3,30.38,North,355,0.0,0.0,39,0.00,,,0.00,Wunderground v.1.15,2013-01-20 17:55:00,
2013-01-20 11:00:00,40.2,16.6,30.38,North,355,0.0,0.0,38,0.00,,,0.00,Wunderground v.1.15,2013-01-20 18:00:00,
2013-01-20 11:05:00,39.8,16.8,30.37,North,355,0.0,1.0,39,0.00,,,0.00,Wunderground v.1.15,2013-01-20 18:05:00,
2013-01-20 11:15:00,41.6,17.8,30.36,North,355,0.0,0.0,38,0.00,,,0.00,Wunderground v.1.15,2013-01-20 18:15:00,
2013-01-20 11:25:00,42.3,18.5,30.35,North,355,0.0,0.0,38,0.00,,,0.00,Wunderground v.1.15,2013-01-20 18:25:00,
2013-01-20 11:30:00,42.5,18.0,30.35,ENE,69,0.0,0.0,37,0.00,,,0.00,Wunderground v.1.15,2013-01-20 18:30:00,
2013-01-20 11:35:00,42.5,18.0,30.34,ENE,74,0.0,0.0,37,0.00,,,0.00,Wunderground v.1.15,2013-01-20 18:35:00,
2013-01-20 11:45:00,42.9,17.7,30.34,ENE,74,0.0,0.0,36,0.00,,,0.00,Wunderground v.1.15,2013-01-20 18:45:00,
2013-01-20 11:50:00,43.2,18.0,30.33,ENE,67,0.0,0.0,36,0.00,,,0.00,Wunderground v.1.15,2013-01-20 18:50:00,
2013-01-20 12:00:00,44.7,18.0,30.32,East,85,0.0,0.0,34,0.00,,,0.00,Wunderground v.1.15,2013-01-20 19:00:00,
2013-01-20 12:05:00,44.7,17.3,30.32,East,85,0.0,0.0,33,0.00,,,0.00,Wunderground v.1.15,2013-01-20 19:05:00,
2013-01-20 12:15:00,45.7,17.5,30.31,NNE,31,0.0,0.0,32,0.00,,,0.00,Wunderground v.1.15,2013-01-20 19:15:00,
2013-01-20 12:20:00,44.8,16.7,30.31,NNE,29,0.0,0.0,32,0.00,,,0.00,Wunderground v.1.15,2013-01-20 19:20:00,
2013-01-20 12:25:00,45.0,16.9,30.31,NNW,340,0.0,0.0,32,0.00,,,0.00,Wunderground v.1.15,2013-01-20 19:25:00,
2013-01-20 12:30:00,45.1,17.0,30.30,NNW,340,0.0,0.0,32,0.00,,,0.00,Wunderground v.1.15,2013-01-20 19:30:00,
2013-01-20 12:35:00,46.1,17.8,30.30,NE,37,0.0,0.0,32,0.00,,,0.00,Wunderground v.1.15,2013-01-20 19:35:00,
2013-01-20 12:45:00,47.6,18.4,30.29,South,171,0.0,0.0,31,0.00,,,0.00,Wunderground v.1.15,2013-01-20 19:45:00,
2013-01-20 12:50:00,47.7,17.7,30.29,SE,131,1.0,1.0,30,0.00,,,0.00,Wunderground v.1.15,2013-01-20 19:50:00,
2013-01-20 12:55:00,47.8,17.8,30.28,SE,132,1.0,5.0,30,0.00,,,0.00,Wunderground v.1.15,2013-01-20 19:55:00,
2013-01-20 13:05:00,49.0,18.1,30.27,SSW,194,1.0,2.0,29,0.00,,,0.00,Wunderground v.1.15,2013-01-20 20:05:00,
2013-01-20 13:15:00,49.0,17.3,30.27,SSW,205,1.0,1.0,28,0.00,,,0.00,Wunderground v.1.15,2013-01-20 20:15:00,
2013-01-20 13:20:00,49.4,17.6,30.26,SSW,205,0.0,0.0,28,0.00,,,0.00,Wunderground v.1.15,2013-01-20 20:20:00,
2013-01-20 13:25:00,49.4,16.8,30.26,SE,131,0.0,0.0,27,0.00,,,0.00,Wunderground v.1.15,2013-01-20 20:25:00,
2013-01-20 13:35:00,49.9,17.2,30.26,SE,141,1.0,1.0,27,0.00,,,0.00,Wunderground v.1.15,2013-01-20 20:35:00,
2013-01-20 13:45:00,50.4,16.8,30.25,SSE,147,1.0,1.0,26,0.00,,,0.00,Wunderground v.1.15,2013-01-20 20:45:00,
2013-01-20 13:50:00,50.3,16.7,30.25,SE,128,1.0,1.0,26,0.00,,,0.00,Wunderground v.1.15,2013-01-20 20:50:00,
2013-01-20 13:55:00,50.7,17.0,30.25,South,173,1.0,1.0,26,0.00,,,0.00,Wunderground v.1.15,2013-01-20 20:55:00,
2013-01-20 14:00:00,50.8,16.2,30.26,ESE,115,1.0,1.0,25,0.00,,,0.00,Wunderground v.1.15,2013-01-20 21:00:00,
2013-01-20 14:05:00,50.8,16.2,30.25,SE,143,1.0,1.0,25,0.00,,,0.00,Wunderground v.1.15,2013-01-20 21:05:00,
2013-01-20 14:15:00,51.1,16.4,30.25,SE,144,1.0,1.0,25,0.00,,,0.00,Wunderground v.1.15,2013-01-20 21:15:00,
2013-01-20 14:20:00,51.1,16.4,30.25,SSE,167,1.0,1.0,25,0.00,,,0.00,Wunderground v.1.15,2013-01-20 21:20:00,
2013-01-20 14:30:00,51.6,15.9,30.25,South,190,0.0,0.0,24,0.00,,,0.00,Wunderground v.1.15,2013-01-20 21:30:00,
2013-01-20 14:35:00,51.4,15.8,30.25,SSE,155,0.0,0.0,24,0.00,,,0.00,Wunderground v.1.15,2013-01-20 21:35:00,
2013-01-20 14:40:00,51.4,15.8,30.25,SSE,155,0.0,0.0,24,0.00,,,0.00,Wunderground v.1.15,2013-01-20 21:40:00,
2013-01-20 14:50:00,52.1,16.4,30.25,SE,146,0.0,0.0,24,0.00,,,0.00,Wunderground v.1.15,2013-01-20 21:50:00,
2013-01-20 14:55:00,52.4,16.6,30.25,SE,142,0.0,0.0,24,0.00,,,0.00,Wunderground v.1.15,2013-01-20 21:55:00,
2013-01-20 15:00:00,52.9,16.1,30.25,SSE,155,0.0,0.0,23,0.00,,,0.00,Wunderground v.1.15,2013-01-20 22:00:00,
2013-01-20 15:05:00,52.7,15.9,30.25,SSE,155,0.0,0.0,23,0.00,,,0.00,Wunderground v.1.15,2013-01-20 22:05:00,
2013-01-20 15:14:00,52.8,16.0,30.25,SW,221,0.0,0.0,23,0.00,,,0.00,Wunderground v.1.15,2013-01-20 22:14:00,
2013-01-20 15:20:00,52.9,15.0,30.24,SW,221,0.0,0.0,22,0.00,,,0.00,Wunderground v.1.15,2013-01-20 22:20:00,
2013-01-20 15:30:00,52.9,15.0,30.25,SSE,148,0.0,1.0,22,0.00,,,0.00,Wunderground v.1.15,2013-01-20 22:30:00,
2013-01-20 15:35:00,53.0,15.1,30.25,SSE,149,0.0,1.0,22,0.00,,,0.00,Wunderground v.1.15,2013-01-20 22:35:00,
2013-01-20 15:40:00,53.0,15.1,30.25,SSE,154,0.0,0.0,22,0.00,,,0.00,Wunderground v.1.15,2013-01-20 22:40:00,
2013-01-20 15:45:00,52.8,14.9,30.25,SE,138,0.0,0.0,22,0.00,,,0.00,Wunderground v.1.15,2013-01-20 22:45:00,
2013-01-20 15:55:00,52.8,14.9,30.24,SE,143,0.0,0.0,22,0.00,,,0.00,Wunderground v.1.15,2013-01-20 22:55:00,
2013-01-20 16:00:00,52.6,14.8,30.24,SE,143,0.0,0.0,22,0.00,,,0.00,Wunderground v.1.15,2013-01-20 23:00:00,
2013-01-20 16:05:00,52.4,14.6,30.24,SE,145,0.0,0.0,22,0.00,,,0.00,Wunderground v.1.15,2013-01-20 23:05:00,
2013-01-20 16:15:00,52.4,14.6,30.24,SE,146,0.0,0.0,22,0.00,,,0.00,Wunderground v.1.15,2013-01-20 23:15:00,
2013-01-20 16:20:00,52.5,13.6,30.24,SE,145,0.0,0.0,21,0.00,,,0.00,Wunderground v.1.15,2013-01-20 23:20:00,
2013-01-20 16:30:00,51.9,14.2,30.24,ESE,117,1.0,1.0,22,0.00,,,0.00,Wunderground v.1.15,2013-01-20 23:30:00,
2013-01-20 16:35:00,52.0,14.3,30.25,ESE,121,1.0,1.0,22,0.00,,,0.00,Wunderground v.1.15,2013-01-20 23:35:00,
2013-01-20 16:40:00,51.7,15.0,30.25,ESE,121,0.0,0.0,23,0.00,,,0.00,Wunderground v.1.15,2013-01-20 23:40:00,
2013-01-20 16:45:00,51.2,14.6,30.25,ESE,121,0.0,0.0,23,0.00,,,0.00,Wunderground v.1.15,2013-01-20 23:45:00,
2013-01-20 16:50:00,50.8,14.3,30.25,ESE,121,0.0,0.0,23,0.00,,,0.00,Wunderground v.1.15,2013-01-20 23:50:00,
2013-01-20 16:55:00,50.1,13.7,30.25,ESE,121,0.0,0.0,23,0.00,,,0.00,Wunderground v.1.15,2013-01-20 23:55:00,
2013-01-20 17:05:00,50.2,9.5,30.25,ESE,115,0.0,0.0,19,0.00,,,0.00,Wunderground v.1.15,2013-01-21 00:05:00,
2013-01-20 17:15:00,49.5,10.0,30.26,NNE,26,0.0,0.0,20,0.00,,,0.00,Wunderground v.1.15,2013-01-21 00:15:00,
2013-01-20 17:20:00,48.2,10.0,30.26,NNE,26,0.0,0.0,21,0.00,,,0.00,Wunderground v.1.15,2013-01-21 00:20:00,
2013-01-20 17:25:00,47.1,11.1,30.26,NNE,26,0.0,0.0,23,0.00,,,0.00,Wunderground v.1.15,2013-01-21 00:25:00,
2013-01-20 17:30:00,45.9,12.0,30.26,NNE,26,0.0,0.0,25,0.00,,,0.00,Wunderground v.1.15,2013-01-21 00:30:00,
2013-01-20 17:40:00,44.4,11.6,30.26,NNE,26,0.0,0.0,26,0.00,,,0.00,Wunderground v.1.15,2013-01-21 00:40:00,
2013-01-20 17:45:00,43.3,12.3,30.26,NNE,26,0.0,0.0,28,0.00,,,0.00,Wunderground v.1.15,2013-01-21 00:45:00,
2013-01-20 17:50:00,42.3,12.3,30.27,NNE,26,0.0,0.0,29,0.00,,,0.00,Wunderground v.1.15,2013-01-21 00:50:00,
2013-01-20 17:55:00,41.9,11.9,30.27,NNE,26,0.0,0.0,29,0.00,,,0.00,Wunderground v.1.15,2013-01-21 00:55:00,
2013-01-20 18:00:00,41.6,11.6,30.27,NNE,26,0.0,0.0,29,0.00,,,0.00,Wunderground v.1.15,2013-01-21 01:00:00,
2013-01-20 18:09:00,40.8,11.7,30.27,NNE,26,0.0,0.0,30,0.00,,,0.00,Wunderground v.1.15,2013-01-21 01:09:00,
2013-01-20 18:15:00,40.4,12.1,30.27,NNE,26,0.0,0.0,31,0.00,,,0.00,Wunderground v.1.15,2013-01-21 01:15:00,
2013-01-20 18:20:00,39.9,11.7,30.27,NNE,26,0.0,0.0,31,0.00,,,0.00,Wunderground v.1.15,2013-01-21 01:20:00,
2013-01-20 18:25:00,39.9,11.7,30.27,NNE,26,0.0,0.0,31,0.00,,,0.00,Wunderground v.1.15,2013-01-21 01:25:00,
2013-01-20 18:30:00,39.8,11.6,30.27,NNE,26,0.0,0.0,31,0.00,,,0.00,Wunderground v.1.15,2013-01-21 01:30:00,
2013-01-20 18:35:00,39.7,11.5,30.28,NNE,26,0.0,0.0,31,0.00,,,0.00,Wunderground v.1.15,2013-01-21 01:35:00,
2013-01-20 18:45:00,39.6,12.1,30.28,NNE,26,0.0,0.0,32,0.00,,,0.00,Wunderground v.1.15,2013-01-21 01:45:00,
2013-01-20 18:50:00,39.2,11.8,30.28,NNE,26,0.0,0.0,32,0.00,,,0.00,Wunderground v.1.15,2013-01-21 01:50:00,
2013-01-20 18:55:00,39.2,12.5,30.28,NNE,26,0.0,0.0,33,0.00,,,0.00,Wunderground v.1.15,2013-01-21 01:55:00,
2013-01-20 19:00:00,39.0,12.3,30.28,North,5,0.0,3.0,33,0.00,,,0.00,Wunderground v.1.15,2013-01-21 02:00:00,
2013-01-20 19:05:00,39.5,12.7,30.28,NNE,15,0.0,3.0,33,0.00,,,0.00,Wunderground v.1.15,2013-01-21 02:05:00,
2013-01-20 19:15:00,40.7,12.4,30.28,NNE,14,0.0,0.0,31,0.00,,,0.00,Wunderground v.1.15,2013-01-21 02:15:00,
2013-01-20 19:20:00,40.6,12.3,30.29,NNE,17,0.0,0.0,31,0.00,,,0.00,Wunderground v.1.15,2013-01-21 02:20:00,
2013-01-20 19:25:00,40.7,11.6,30.29,NNE,17,0.0,0.0,30,0.00,,,0.00,Wunderground v.1.15,2013-01-21 02:25:00,
2013-01-20 19:30:00,40.5,11.4,30.30,NNE,17,0.0,0.0,30,0.00,,,0.00,Wunderground v.1.15,2013-01-21 02:30:00,
2013-01-20 19:35:00,39.8,11.6,30.30,NNE,17,0.0,0.0,31,0.00,,,0.00,Wunderground v.1.15,2013-01-21 02:35:00,
2013-01-20 19:40:00,39.1,11.7,30.30,NNE,17,0.0,0.0,32,0.00,,,0.00,Wunderground v.1.15,2013-01-21 02:40:00,
2013-01-20 19:45:00,38.5,11.8,30.30,NNE,17,0.0,0.0,33,0.00,,,0.00,Wunderground v.1.15,2013-01-21 02:45:00,
2013-01-20 19:55:00,37.1,12.6,30.30,NNE,19,0.0,2.0,36,0.00,,,0.00,Wunderground v.1.15,2013-01-21 02:55:00,
2013-01-20 20:00:00,37.3,11.5,30.30,NNE,19,0.0,0.0,34,0.00,,,0.00,Wunderground v.1.15,2013-01-21 03:00:00,
2013-01-20 20:05:00,36.4,11.9,30.30,NNE,19,0.0,0.0,36,0.00,,,0.00,Wunderground v.1.15,2013-01-21 03:05:00,
2013-01-20 20:15:00,35.7,12.5,30.30,North,10,0.0,0.0,38,0.00,,,0.00,Wunderground v.1.15,2013-01-21 03:15:00,
2013-01-20 20:20:00,35.6,12.5,30.30,North,10,0.0,0.0,38,0.00,,,0.00,Wunderground v.1.15,2013-01-21 03:20:00,
2013-01-20 20:30:00,34.2,12.4,30.31,North,10,0.0,0.0,40,0.00,,,0.00,Wunderground v.1.15,2013-01-21 03:30:00,
2013-01-20 20:35:00,34.1,12.3,30.31,North,10,0.0,0.0,40,0.00,,,0.00,Wunderground v.1.15,2013-01-21 03:35:00,
2013-01-20 20:40:00,33.7,13.0,30.31,North,11,0.0,1.0,42,0.00,,,0.00,Wunderground v.1.15,2013-01-21 03:40:00,
2013-01-20 20:45:00,34.5,14.3,30.31,North,11,1.0,2.0,43,0.00,,,0.00,Wunderground v.1.15,2013-01-21 03:45:00,
2013-01-20 20:50:00,35.9,14.5,30.31,NNE,12,3.0,3.0,41,0.00,,,0.00,Wunderground v.1.15,2013-01-21 03:50:00,
2013-01-20 20:55:00,36.8,14.7,30.31,North,360,2.0,3.0,40,0.00,,,0.00,Wunderground v.1.15,2013-01-21 03:55:00,
2013-01-20 21:05:00,37.1,14.4,30.31,North,5,1.0,2.0,39,0.00,,,0.00,Wunderground v.1.15,2013-01-21 04:05:00,
2013-01-20 21:15:00,37.0,14.3,30.32,NNE,13,1.0,3.0,39,0.00,,,0.00,Wunderground v.1.15,2013-01-21 04:15:00,
2013-01-20 21:20:00,37.1,14.4,30.32,NNE,22,2.0,2.0,39,0.00,,,0.00,Wunderground v.1.15,2013-01-21 04:20:00,